TimeEST,TemperatureF,Dew PointF,Humidity,Sea Level PressureIn,VisibilityMPH,Wind Direction,Wind SpeedMPH,Gust SpeedMPH,PrecipitationIn,Events,Conditions,WindDirDegrees,DateUTC
12:53 AM,51.1,50.0,96,29.83,5.0,SSW,8.1,-,N/A,,Overcast,210,2011-11-16 05:53:00
1:53 AM,50.0,48.9,96,29.81,5.0,South,8.1,-,N/A,,Mostly Cloudy,190,2011-11-16 06:53:00
2:53 AM,50.0,48.9,96,29.80,5.0,WSW,3.5,-,N/A,,Scattered Clouds,240,2011-11-16 07:53:00
3:44 AM,46.4,46.4,100,29.82,2.5,SW,3.5,-,N/A,,Clear,230,2011-11-16 08:44:00
3:53 AM,46.9,46.9,100,29.82,2.5,WSW,3.5,-,N/A,,Clear,240,2011-11-16 08:53:00
4:03 AM,48.2,46.4,93,29.82,1.2,WSW,3.5,-,N/A,,Scattered Clouds,250,2011-11-16 09:03:00
4:09 AM,48.2,46.4,93,29.82,2.0,West,4.6,-,N/A,,Mostly Cloudy,260,2011-11-16 09:09:00
4:20 AM,48.2,48.2,100,29.81,3.0,SW,3.5,-,N/A,,Mostly Cloudy,230,2011-11-16 09:20:00
4:53 AM,50.0,48.9,96,29.81,4.0,SW,4.6,-,N/A,,Overcast,230,2011-11-16 09:53:00
5:09 AM,50.0,48.2,94,29.82,4.0,WSW,8.1,-,N/A,,Mostly Cloudy,240,2011-11-16 10:09:00
5:26 AM,51.8,48.2,88,29.83,5.0,WSW,6.9,-,N/A,,Mostly Cloudy,250,2011-11-16 10:26:00
5:53 AM,51.1,48.9,92,29.83,5.0,West,9.2,-,N/A,,Overcast,270,2011-11-16 10:53:00
6:29 AM,51.8,48.2,88,29.84,5.0,WNW,8.1,-,N/A,,Overcast,290,2011-11-16 11:29:00
7:15 AM,50.0,46.4,87,29.86,7.0,NW,9.2,-,N/A,,Overcast,310,2011-11-16 12:15:00
7:53 AM,48.9,43.0,80,29.87,8.0,NW,8.1,-,N/A,,Mostly Cloudy,320,2011-11-16 12:53:00
8:53 AM,46.9,39.9,77,29.89,10.0,NW,6.9,-,N/A,,Partly Cloudy,320,2011-11-16 13:53:00
9:53 AM,46.9,39.0,74,29.90,10.0,NW,6.9,-,N/A,,Clear,320,2011-11-16 14:53:00
10:53 AM,46.9,39.0,74,29.92,10.0,NNW,12.7,-,N/A,,Clear,330,2011-11-16 15:53:00
11:53 AM,48.0,37.9,68,29.92,10.0,NW,16.1,19.6,N/A,,Partly Cloudy,310,2011-11-16 16:53:00
12:53 PM,46.9,36.0,66,29.91,10.0,NW,11.5,-,N/A,,Clear,310,2011-11-16 17:53:00
1:53 PM,46.9,30.0,52,29.92,10.0,WNW,12.7,-,N/A,,Clear,300,2011-11-16 18:53:00
2:53 PM,46.9,28.9,50,29.93,10.0,NW,12.7,-,N/A,,Clear,310,2011-11-16 19:53:00
4:53 PM,44.1,27.0,51,29.96,10.0,WNW,9.2,-,N/A,,Clear,290,2011-11-16 21:53:00
5:53 PM,42.1,28.9,60,29.99,10.0,WNW,8.1,-,N/A,,Clear,300,2011-11-16 22:53:00
6:53 PM,41.0,26.1,55,30.03,10.0,NW,12.7,-,N/A,,Clear,310,2011-11-16 23:53:00
7:53 PM,39.0,27.0,62,30.05,10.0,NW,13.8,-,N/A,,Clear,320,2011-11-17 00:53:00
8:53 PM,37.0,25.0,62,30.06,10.0,NW,12.7,-,N/A,,Clear,310,2011-11-17 01:53:00
9:53 PM,36.0,26.1,67,30.08,10.0,NW,9.2,-,N/A,,Clear,310,2011-11-17 02:53:00
10:53 PM,36.0,26.1,67,30.08,10.0,NW,4.6,-,N/A,,Partly Cloudy,310,2011-11-17 03:53:00
11:53 PM,35.1,27.0,72,30.09,10.0,West,3.5,-,N/A,,Overcast,280,2011-11-17 04:53:00